PROFILE

 METAR AND TAF INFORMATION
ADDS - METARS form results

(0355 UTC 25 April 2019)
http://aviationweather.gov/metar/data/
 
OERK 250300Z 31003KT CAVOK 14/M05 Q1021 NOSIG
TAF OERK 242300Z 2500/2606 36005G15KT CAVOK 

 AIRPORT MAP

 RUNWAY INFORMATION
Runway 15L Runway length 13796 ft Runway width 197 ft
Runway elevation 2033 ft Runway displaced threshold 0 ft Runway heading 150
Runway 33R Runway length 13796 ft Runway width 197 ft
Runway elevation 2012 ft Runway displaced threshold 0 ft Runway heading 330
Runway 15R Runway length 13796 ft Runway width 197 ft
Runway elevation 2049 ft Runway displaced threshold 0 ft Runway heading 150
Runway 33L Runway length 13796 ft Runway width 197 ft
Runway elevation 2033 ft Runway displaced threshold 0 ft Runway heading 330

 AIRPORT FREQUENCIES
Type APP Name RIYADH APP Frequency 120 MHZ
Type ATIS Name ATIS Frequency 127.15 MHZ
Type Ctrl Name Frequency 126 MHZ
Type GND Name GND Frequency 121.6 MHZ
Type TWR Name TWR Frequency 118.6 MHZ

 AIRPORT NEAR NAVIGATION AIDS
Type VORTAC Name King Khaled Frequency 113300 KHZ